Torna al catalogo

HULIANWANG DIGUI-01

AttivoComunicazioniPO
NORAD 62323·PAYLOAD·🇨🇳 China

Lanciato Dec 16, 2024 da Wenchang Space Launch Site

Loading…

Prossimi Passaggi (prossime 24 ore)

TLE

AggiornatoSource: Space-Track

Epoca: Sep 14, 2026, 21:36 UTC

1 62323U 24240A   26257.90065339  .00000023  00000-0  19996-4 0  9998
2 62323  86.4994 312.9874 0001777  89.7725 270.3613 13.24414047 84512

Traccia HULIANWANG DIGUI-01 in tempo reale con AllMySat

Download on the App Store